Location: Gesvres
(49.0440°N, 2.8518°E)
Time: 16:21:55
(UTC+00:00)

Cosmos 2322 Rocket - Visible Passes

Search period start: 30 September 2023 00:00
Search period end: 10 October 2023 00:00
Orbit: 833 x 849 km, 71.0° (Epoch: 29 September)

Date Brightness Start Highest point End Pass type
(mag) Time Alt. Az. Time Alt. Az. Time Alt. Az.
30 Sep 4.3 00:59:36 10° NNW 01:02:21 22° NNE 01:02:21 22° NNE visible
30 Sep 4.3 02:43:19 10° NNW 02:44:03 14° NW 02:44:03 14° NW visible
30 Sep 4.8 19:25:20 10° WNW 19:29:05 18° NW 19:32:51 10° N visible
01 Oct 4.5 00:44:28 10° NNW 00:46:25 18° N 00:46:25 18° N visible
01 Oct 4.7 19:10:02 10° W 19:13:52 18° NW 19:17:44 10° N visible
02 Oct 4.7 00:29:20 10° NNW 00:30:46 16° N 00:30:46 16° N visible
02 Oct 4.7 18:54:44 10° W 18:58:40 19° NW 19:02:37 10° N visible
03 Oct 4.8 00:14:13 10° NNW 00:15:18 14° N 00:15:18 14° N visible
03 Oct 4.6 18:39:26 10° W 18:43:27 20° NW 18:47:30 10° N visible
03 Oct 4.9 23:59:05 10° N 23:59:56 13° N 23:59:56 13° N visible
04 Oct 4.6 18:24:09 10° W 18:28:15 20° NW 18:32:23 10° N visible
04 Oct 5.0 23:43:57 10° N 23:44:40 13° N 23:44:40 13° N visible
05 Oct 4.5 18:08:52 10° W 18:13:03 21° NW 18:17:16 10° N visible
05 Oct 5.0 23:28:50 10° N 23:29:27 12° N 23:29:27 12° N visible
06 Oct 4.5 17:53:35 10° W 17:57:51 22° NW 18:02:09 10° N visible
06 Oct 5.0 23:13:43 10° N 23:14:16 12° N 23:14:16 12° N visible
07 Oct 4.4 17:38:18 10° W 17:42:38 22° NW 17:47:01 10° N visible
07 Oct 5.0 22:58:35 10° N 22:59:08 12° N 22:59:08 12° N visible
08 Oct 5.0 22:43:28 10° N 22:44:02 12° N 22:44:02 12° N visible
09 Oct 5.0 22:28:21 10° N 22:28:57 12° N 22:28:57 12° N visible
